This demonstration page uses our WeatherBlox Daily Observations layout. Learn more.

Left ArrowRight Arrow

39.51506, -84.39828

Hourly Observations for June 6, 2015

Temp ( °F °C ) Dew Point ( °F °C ) Humidity (%) Winds ( mph kmh ) Pressure ( in mb ) Visibility ( mi km ) Precip ( " mm )
12:15 am 00:15 Clear 74 23.6 60 15.7 61 61 N 7 11 29.97 1015 10 16.0934 N/A
12:35 am 00:35 Clear 71 21.6 58 14.6 65 65 N 7 11 29.97 1015 10 16.0934 N/A
12:55 am 00:55 Clear 72 22.1 61 15.9 68 68 NNE 8 13 29.97 1015 10 16.0934 N/A
1:15 am 01:15 Clear 72 22.3 63 17 72 72 NNE 8 13 29.97 1015 10 16.0934 N/A
1:35 am 01:35 Clear 69 20.8 62 16.5 77 77 NNE 7 11 30 1016 10 16.0934 N/A
1:55 am 01:55 Clear 69 20.8 62 16.8 78 78 NNE 8 13 30 1016 7 11.26538 N/A
2:15 am 02:15 Clear 69 20.8 63 17.2 80 80 NE 8 13 30 1016 7 11.26538 N/A
2:35 am 02:35 Mostly Cloudy 69 20.8 63 17.1 79 79 NE 9 15 30 1016 7 11.26538 N/A
2:55 am 02:55 Cloudy 69 20.8 62 16.8 78 78 NNE 12 19 30 1016 7 11.26538 N/A
3:15 am 03:15 Cloudy 69 20.8 62 16.7 77 77 NNE 10 17 30 1016 7 11.26538 N/A
3:35 am 03:35 Cloudy 69 20.8 61 16.2 75 75 NE 14 22 30 1016 7 11.26538 N/A
3:55 am 03:55 Cloudy 69 20.8 61 16.3 76 76 NNE 10 17 30 1016 7 11.26538 N/A
4:15 am 04:15 Partly Cloudy 69 20.8 62 16.9 78 78 NE 10 17 30 1016 7 11.26538 N/A
4:35 am 04:35 Partly Cloudy 69 20.8 62 16.8 78 78 NE 12 19 30.03 1017 7 11.26538 N/A
4:55 am 04:55 Cloudy 69 20.8 62 16.8 78 78 NNE 6 9 30.03 1017 10 16.0934 N/A
5:15 am 05:15 Cloudy 67 19.5 60 15.5 78 78 NNE 10 17 30.03 1017 10 16.0934 N/A
5:35 am 05:35 Cloudy 64 18 57 14.1 78 78 NNE 9 15 30.03 1017 10 16.0934 N/A
5:55 am 05:55 Cloudy 64 18 57 14.1 78 78 N 9 15 30.03 1017 10 16.0934 N/A
6:15 am 06:15 Cloudy 64 18 57 14 78 78 NE 9 15 30.03 1017 7 11.26538 N/A
6:35 am 06:35 Cloudy 64 18 57 14.1 78 78 NE 8 13 30.06 1018 7 11.26538 N/A
6:55 am 06:55 Cloudy 64 18 57 14 78 78 NE 8 13 30.06 1018 7 11.26538 N/A
7:15 am 07:15 Cloudy 64 18 57 13.8 77 77 NE 13 20 30.06 1018 7 11.26538 N/A
7:35 am 07:35 Cloudy 65 18.1 57 13.8 76 76 NE 13 20 30.06 1018 7 11.26538 N/A
7:55 am 07:55 Cloudy 67 19.5 59 15 75 75 NE 9 15 30.06 1018 10 16.0934 N/A
8:15 am 08:15 Cloudy 67 19.5 59 14.8 74 74 NNE 9 15 30.06 1018 10 16.0934 N/A
8:35 am 08:35 Cloudy 67 19.5 59 14.8 74 74 NNE 12 19 30.06 1018 10 16.0934 N/A
8:55 am 08:55 Cloudy 69 20.8 61 16 74 74 NE 8 13 30.06 1018 10 16.0934 N/A
9:15 am 09:15 Cloudy 69 20.8 60 15.5 72 72 NNE 8 13 30.09 1019 10 16.0934 N/A
9:35 am 09:35 Cloudy 69 20.8 60 15.5 72 72 NNE 7 11 30.09 1019 10 16.0934 N/A
9:55 am 09:55 Cloudy 69 20.8 60 15.7 73 73 NNE 12 19 30.09 1019 10 16.0934 N/A
10:15 am 10:15 Cloudy 69 20.8 60 15.3 71 71 NE 9 15 30.09 1019 10 16.0934 N/A
10:35 am 10:35 Cloudy 69 20.8 59 15.1 70 70 NE 8 13 30.09 1019 10 16.0934 N/A
10:55 am 10:55 Cloudy 69 20.8 59 15 70 70 NE 5 7 30.09 1019 10 16.0934 N/A
12:35 pm 12:35 Cloudy 74 23.6 61 16.1 63 63 NE 10 17 30.09 1019 10 16.0934 N/A
12:55 pm 12:55 Mostly Cloudy 74 23.6 60 15.8 62 62 NE 8 13 30.09 1019 10 16.0934 N/A
1:15 pm 13:15 Partly Cloudy 74 23.6 60 15.7 61 61 ENE 10 17 30.06 1018 10 16.0934 N/A
1:35 pm 13:35 Partly Cloudy 74 23.6 61 16 63 63 NE 10 17 30.06 1018 10 16.0934 N/A
1:55 pm 13:55 Mostly Cloudy 74 23.6 62 16.5 65 65 E 9 15 30.06 1018 10 16.0934 N/A
2:15 pm 14:15 Cloudy 74 23.6 61 16.3 64 64 ENE 9 15 30.06 1018 10 16.0934 N/A
2:35 pm 14:35 Cloudy 74 23.6 61 16.2 63 63 N N/A 30.06 1018 10 16.0934 N/A
2:55 pm 14:55 Cloudy 74 23.6 61 16.3 64 64 ENE 7 11 30.06 1018 10 16.0934 N/A
3:15 pm 15:15 Cloudy 74 23.6 61 16.1 63 63 ENE 6 9 30.06 1018 10 16.0934 N/A
3:35 pm 15:35 Cloudy 75 23.8 61 16.2 63 63 ENE 6 9 30.06 1018 10 16.0934 N/A
3:55 pm 15:55 Cloudy 74 23.6 61 16.1 63 63 ENE 5 7 30.06 1018 10 16.0934 N/A
4:15 pm 16:15 Cloudy 74 23.6 61 15.9 62 62 ENE 7 11 30.06 1018 10 16.0934 N/A
4:35 pm 16:35 Cloudy 76 24.7 63 17 62 62 NE 6 9 30.06 1018 10 16.0934 N/A
4:55 pm 16:55 Cloudy 75 23.7 61 16 62 62 NE 3 6 30.06 1018 10 16.0934 N/A
5:15 pm 17:15 Cloudy 74 23.6 61 15.9 62 62 NE 6 9 30.03 1017 10 16.0934 N/A
5:35 pm 17:35 Cloudy 76 24.4 60 15.8 59 59 N N/A 30.03 1017 10 16.0934 N/A
5:55 pm 17:55 Mostly Cloudy 77 25.1 62 16.5 59 59 NE 5 7 30.03 1017 10 16.0934 N/A
6:15 pm 18:15 Mostly Cloudy 77 25.1 62 16.5 59 59 NE 6 9 30.03 1017 10 16.0934 N/A
6:35 pm 18:35 Partly Cloudy 77 25.1 61 16.3 58 58 N N/A 30.03 1017 10 16.0934 N/A
6:55 pm 18:55 Sunny 77 25.1 61 16.1 57 57 ENE 5 7 30.03 1017 10 16.0934 N/A
7:15 pm 19:15 Partly Cloudy 77 25.1 62 16.4 59 59 NE 5 7 30.03 1017 10 16.0934 N/A
7:35 pm 19:35 Sunny 77 25 62 16.6 60 60 ENE 5 7 30 1016 10 16.0934 N/A
7:55 pm 19:55 Sunny 74 23.6 62 16.7 65 65 ENE 3 6 30.03 1017 10 16.0934 N/A
8:15 pm 20:15 Sunny 74 23.6 60 15.7 61 61 E 6 9 30 1016 10 16.0934 N/A
8:35 pm 20:35 Sunny 74 23.6 62 16.5 65 65 N N/A 30 1016 10 16.0934 N/A
8:55 pm 20:55 Sunny 74 23.6 61 16.2 63 63 N N/A 30 1016 10 16.0934 N/A
9:15 pm 21:15 Clear 69 20.8 64 17.7 83 83 N N/A 30 1016 10 16.0934 N/A
9:35 pm 21:35 Clear 68 19.8 63 17.1 85 85 N N/A 30 1016 10 16.0934 N/A
9:55 pm 21:55 Clear 64 18 60 15.6 86 86 N N/A 30.03 1017 7 11.26538 N/A
10:15 pm 22:15 Clear 64 18 60 15.7 87 87 N N/A 30.03 1017 7 11.26538 N/A
10:35 pm 22:35 Clear with Mist and Fog 63 17.4 59 15.2 87 87 N N/A 30 1016 5 8.0467 N/A
10:55 pm 22:55 Clear with Mist and Fog 62 16.6 58 14.5 88 88 N N/A 30.03 1017 5 8.0467 N/A
11:15 pm 23:15 Clear with Mist and Fog 62 16.6 58 14.6 88 88 N N/A 30.03 1017 5 8.0467 N/A
11:35 pm 23:35 Clear with Mist and Fog 62 16.6 58 14.7 89 89 N N/A 30.03 1017 3 4.82802 N/A
11:55 pm 23:55 Mostly Cloudy with Mist and Fog 62 16.4 58 14.6 89 89 N N/A 30.03 1017 1.5 2.41401 N/A

Powered by AerisWeather